Location: Pian di Sc�
(43.6333°N, 11.5500°E)
Time: 13:29:41
(UTC+00:00)

USA 229 DEB - Pass Details

Date: 07 August 2020
Orbit: 971 x 1241 km, 63.4° (Epoch: 22 September)

Event Time Altitude Azimuth Distance (km) Brightness Sun altitude
Exits shadow 02:48:40 18° 229° (SW) 2,221 4.7 -13.4°
Maximum altitude 02:53:35 68° 310° (NW) 1,098 3.7 -12.7°
Drops below altitude 10° 03:00:25 10° 33° (NNE) 2,916 7.2 -11.7°
Sets 03:03:11 0° 37° (NE) 3,916 8.3 -11.3°
